San Antonio Stinson, TX

3:23 AM CDT on April 24, 2017 (GMT -0500)
Stinson Municipal

Weather History for KSSF - August, 2014

Change the Weather History Date:

Saturday, August 30, 2014

  Actual Average Record
Temperature  
Mean Temperature 86 °F -  
Max Temperature 97 °F 92 °F 105 °F (2013)
Min Temperature 75 °F 71 °F 70 °F (2004)
Cooling Degree Days 20    
Growing Degree Days 36 (Base 50)    
Moisture  
Dew Point 71 °F    
Average Humidity 67    
Maximum Humidity 91    
Minimum Humidity 33    
Precipitation  
Precipitation 0.00 in - - ()
Sea Level Pressure  
Sea Level Pressure 29.88 in    
Wind  
Wind Speed 6 mph (SE)    
Max Wind Speed 14 mph    
Max Gust Speed 17 mph    
Visibility 10 miles    
Events      
Averages and records for this station are not official NWS values.
T = Trace of Precipitation, MM = Missing Value Source: NWS Daily Summary

Daily Weather History Graph

Daily Weather History Graph

Search for Another Location

Airport or City:

Trip Planner

Search our weather history database for the weather conditions in past years. The results will help you decide how hot, cold, wet, or windy it might be!

Date:

Astronomy

Aug. 30, 2014 Rise Set
Actual Time 7:10 AM CDT 7:58 PM CDT
Civil Twilight 6:46 AM CDT 8:22 PM CDT
Nautical Twilight 6:17 AM CDT 8:50 PM CDT
Astronomical Twilight 5:48 AM CDT 9:19 PM CDT
Moon 11:34 AM CDT (8/30) 10:59 PM CDT (8/30)
Length of Visible Light 13h 36m
Length of Day
12h 47m
Waxing Crescent, 23% of the Moon is Illuminated
Aug 30
Waxing Crescent
Sep 2
First Quarter
Sep 8
Full
Sep 15
Last Quarter
Sep 24
New

Hourly Weather History & Observations

Time (CDT) Temp. Heat Index Dew Point Humidity Pressure Visibility Wind Dir Wind Speed Gust Speed Precip Events Conditions
12:53 AM 81.0 °F 85.8 °F 73.0 °F 77% 29.87 in 10.0 mi ESE 10.4 mph - N/A   Mostly Cloudy
1:53 AM 80.1 °F 84.2 °F 73.0 °F 79% 29.87 in 10.0 mi SE 8.1 mph - N/A   Mostly Cloudy
2:53 AM 79.0 °F - 73.9 °F 84% 29.88 in 10.0 mi SSE 4.6 mph - N/A   Partly Cloudy
3:53 AM 78.1 °F - 73.9 °F 87% 29.87 in 10.0 mi South 3.5 mph - N/A   Scattered Clouds
4:02 AM 78.1 °F - 73.9 °F 87% 29.91 in 10.0 mi South 3.5 mph - N/A   Mostly Cloudy
4:10 AM 78.1 °F - 73.9 °F 87% 29.91 in 10.0 mi South 4.6 mph - N/A   Scattered Clouds
4:18 AM 78.1 °F - 73.9 °F 87% 29.91 in 10.0 mi South 3.5 mph - N/A   Mostly Cloudy
4:28 AM 77.0 °F - 73.9 °F 90% 29.91 in 10.0 mi Calm Calm - N/A   Partly Cloudy
4:53 AM 77.0 °F - 73.9 °F 90% 29.86 in 10.0 mi Calm Calm - N/A   Clear
5:53 AM 77.0 °F - 73.9 °F 90% 29.86 in 10.0 mi Calm Calm - N/A   Clear
6:53 AM 75.9 °F - 73.0 °F 91% 29.87 in 10.0 mi Calm Calm - N/A   Clear
7:53 AM 75.9 °F - 73.0 °F 91% 29.88 in 10.0 mi Calm Calm - N/A   Clear
8:53 AM 80.1 °F 84.5 °F 73.9 °F 81% 29.89 in 10.0 mi Calm Calm - N/A   Clear
9:53 AM 84.0 °F 89.6 °F 72.0 °F 67% 29.91 in 10.0 mi ENE 3.5 mph - N/A   Scattered Clouds
10:36 AM 86.0 °F 91.5 °F 71.1 °F 61% 29.94 in 10.0 mi Variable 3.5 mph - N/A   Mostly Cloudy
10:53 AM 86.0 °F 91.5 °F 71.1 °F 61% 29.91 in 10.0 mi East 3.5 mph - N/A   Mostly Cloudy
11:04 AM 87.1 °F 92.8 °F 71.1 °F 59% 29.94 in 10.0 mi Calm Calm - N/A   Partly Cloudy
11:53 AM 90.0 °F 95.4 °F 70.0 °F 52% 29.89 in 10.0 mi Variable 3.5 mph - N/A   Mostly Cloudy
12:53 PM 91.9 °F 96.9 °F 69.1 °F 47% 29.87 in 10.0 mi ENE 8.1 mph - N/A   Partly Cloudy
1:53 PM 95.0 °F 99.5 °F 68.0 °F 41% 29.86 in 10.0 mi Variable 3.5 mph - N/A   Mostly Cloudy
2:53 PM 93.9 °F 98.6 °F 68.0 °F 43% 29.84 in 10.0 mi Variable 4.6 mph - N/A   Mostly Cloudy
3:53 PM 95.0 °F 99.0 °F 66.9 °F 40% 29.82 in 10.0 mi ESE 10.4 mph 17.3 mph N/A   Scattered Clouds
4:53 PM 96.1 °F 99.9 °F 66.9 °F 38% 29.80 in 10.0 mi ESE 13.8 mph 17.3 mph N/A   Partly Cloudy
5:53 PM 96.1 °F 97.3 °F 63.0 °F 33% 29.80 in 10.0 mi ESE 10.4 mph - N/A   Clear
6:53 PM 93.9 °F 96.1 °F 64.9 °F 38% 29.81 in 10.0 mi East 11.5 mph - N/A   Clear
7:53 PM 90.0 °F 94.5 °F 69.1 °F 50% 29.81 in 10.0 mi SE 11.5 mph - N/A   Scattered Clouds
8:53 PM 87.1 °F 91.3 °F 69.1 °F 55% 29.87 in 10.0 mi SSE 12.7 mph - N/A   Mostly Cloudy
9:53 PM 84.9 °F 88.8 °F 69.1 °F 59% 29.89 in 10.0 mi SE 11.5 mph - N/A   Clear
10:53 PM 82.0 °F 85.9 °F 70.0 °F 67% 29.91 in 10.0 mi SSE 10.4 mph - N/A   Clear
11:53 PM 80.1 °F 83.6 °F 71.1 °F 74% 29.92 in 10.0 mi SSE 9.2 mph - N/A   Clear